Flag for Norway Weather past 2 weeks in Sandefjord, Norway

Now
55 °F

Light rain. Passing clouds.


Feels Like: 53 °F
Forecast: 52 / 63 °F
Wind: 9 mph from East

Location: Torp

Current Time: Aug 31, 2014 at 6:30:29 AM

Latest Report: Aug 31, 2014 at 5:50 AM


Visibility: N/A

Pressure: 30.01 "Hg

Humidity: 94%

Dew point: 54 °F

Location of SandefjordLocation

Historic Weather in Sandefjord — Graph

°F

Sandefjord temperature yesterday

Maximum temperature yesterday: 59 °F (at 12:20 AM)
Minimum temperature yesterday: 54 °F (at 3:50 PM)
Average temperature yesterday: 57 °F

Past Weeks' High & Low Weather Summary

 TemperatureHumidityPressure
High68 °F (Aug 16, 12:50 PM)100% (Aug 16, 5:20 AM)29.98 "Hg (Aug 16, 5:20 AM)
Low45 °F (Aug 18, 6:50 AM)40% (Aug 27, 1:50 PM)29.18 "Hg (Aug 18, 8:50 AM)
Average56 °F79%29.65 "Hg
* Reported Aug 16 5:20 AM — Aug 31 5:20 AM, Sandefjord, Weather by CustomWeather, © 2014

Note: Actual official high and low records may vary slightly from our data, if they occured in-between our weather recording intervals... More about our weather records

Advertising

Sandefjord weather history for previous 24 hours

 ConditionsComfort  
Time TempWeatherWind HumidityBarometerVisibility
5:20 AM
Aug 31
55 °FLight rain. Mostly cloudy.10 mph94%29.98 "Hg6 mi
4:50 AM55 °FRain. Passing clouds.8 mph94%29.98 "Hg4 mi
4:20 AM55 °FLight rain. Mostly cloudy.9 mph94%29.98 "HgN/A
3:50 AM55 °FLight rain. Overcast.7 mph94%29.98 "HgN/A
3:20 AM55 °FLight rain. Partly cloudy.9 mph94%29.98 "Hg4 mi
2:50 AM55 °FLight rain. Overcast.9 mph94%29.98 "Hg3 mi
2:20 AM55 °FPartly cloudy.8 mph100%29.98 "Hg2 mi
1:50 AM55 °FLight rain. Passing clouds.10 mph94%29.98 "Hg2 mi
1:20 AM55 °FRain. Partly cloudy.7 mph94%29.98 "Hg2 mi
12:50 AM55 °FRain. Passing clouds.8 mph94%29.95 "Hg4 mi
12:20 AM55 °FRain. Passing clouds.7 mph94%29.95 "Hg4 mi
11:50 PM
Aug 30
55 °FLight rain. Passing clouds.9 mph94%29.95 "HgN/A
11:20 PM57 °FLight rain. Passing clouds.8 mph88%29.95 "HgN/A
10:50 PM57 °FLight rain. Passing clouds.9 mph88%29.95 "HgN/A
10:20 PM57 °FPassing clouds.9 mph88%29.95 "HgN/A
9:50 PM57 °FPassing clouds.8 mph88%29.95 "HgN/A
9:20 PM57 °FPartly sunny.8 mph88%29.95 "HgN/A
8:50 PM57 °FPartly sunny.8 mph88%29.95 "HgN/A
7:50 PM57 °FBroken clouds.8 mph88%29.95 "HgN/A
7:20 PM57 °FPartly sunny.8 mph88%29.95 "HgN/A
6:50 PM55 °FBroken clouds.8 mph94%29.95 "HgN/A
6:20 PM57 °FPartly sunny.7 mph88%29.95 "HgN/A
5:50 PM55 °FPartly sunny.7 mph94%29.95 "HgN/A
5:20 PM55 °FBroken clouds.7 mph94%29.95 "HgN/A
4:50 PM55 °FBroken clouds.8 mph88%29.95 "HgN/A
4:20 PM55 °FScattered showers. Broken clouds.7 mph94%29.95 "Hg6 mi
3:50 PM54 °FRain. Fog.12 mph94%29.95 "Hg3 mi
3:20 PM55 °FRain. Fog.13 mph88%29.95 "Hg3 mi
2:50 PM55 °FRain. Broken clouds.6 mph94%29.95 "Hg3 mi
2:20 PM55 °FRain. Broken clouds.6 mph94%29.95 "Hg3 mi
1:50 PM57 °FLight rain. Partly sunny.9 mph82%29.95 "Hg6 mi
1:20 PM57 °FLight rain. Broken clouds.9 mph82%29.95 "HgN/A
12:50 PM59 °FLight rain. Mostly cloudy.9 mph77%29.95 "HgN/A
12:20 PM59 °FLight rain. Broken clouds.8 mph82%29.95 "HgN/A
11:50 AM59 °FBroken clouds.9 mph82%29.95 "HgN/A
11:20 AM59 °FBroken clouds.9 mph82%29.95 "HgN/A
10:50 AM57 °FBroken clouds.9 mph88%29.95 "HgN/A
10:20 AM57 °FPartly sunny.8 mph88%29.95 "HgN/A
9:50 AM57 °FBroken clouds.8 mph94%29.95 "HgN/A
9:20 AM57 °FDrizzle. Broken clouds.8 mph94%29.95 "HgN/A
8:50 AM57 °FLight rain. Partly sunny.7 mph88%29.95 "HgN/A
8:20 AM57 °FLight rain. Partly sunny.6 mph88%29.92 "HgN/A
7:50 AM57 °FLight rain. Partly sunny.8 mph88%29.92 "HgN/A
7:20 AM57 °FLight rain. Partly sunny.8 mph88%29.92 "HgN/A
6:50 AM57 °FPassing clouds.8 mph88%29.92 "HgN/A
6:20 AM57 °FMostly cloudy.7 mph88%29.92 "HgN/A
Weather by CustomWeather, © 2014

See weather overviewHow to use our weather pages